TimeCDT,TemperatureF,Dew PointF,Humidity,Sea Level PressureIn,VisibilityMPH,Wind Direction,Wind SpeedMPH,Gust SpeedMPH,PrecipitationIn,Events,Conditions,WindDirDegrees,DateUTC
12:53 AM,27.0,21.0,78,30.45,10.0,Calm,Calm,-,N/A,,Clear,0,2012-10-12 05:53:00
1:53 AM,28.9,21.9,75,30.45,10.0,Calm,Calm,-,N/A,,Clear,0,2012-10-12 06:53:00
2:53 AM,30.0,23.0,75,30.44,10.0,Calm,Calm,-,N/A,,Clear,0,2012-10-12 07:53:00
3:53 AM,28.0,19.9,72,30.43,10.0,SE,4.6,-,N/A,,Clear,140,2012-10-12 08:53:00
5:53 AM,25.0,19.0,78,30.41,10.0,SSE,4.6,-,N/A,,Clear,150,2012-10-12 10:53:00
7:53 AM,27.0,19.0,72,30.39,10.0,SSE,8.1,-,N/A,,Clear,150,2012-10-12 12:53:00
8:53 AM,30.0,19.9,66,30.36,10.0,SE,9.2,-,N/A,,Clear,140,2012-10-12 13:53:00
9:53 AM,37.0,19.9,50,30.36,10.0,SSE,15.0,-,N/A,,Clear,160,2012-10-12 14:53:00
10:53 AM,43.0,19.0,38,30.35,10.0,South,21.9,31.1,N/A,,Clear,170,2012-10-12 15:53:00
11:53 AM,48.0,17.1,29,30.31,10.0,SSE,24.2,29.9,N/A,,Clear,160,2012-10-12 16:53:00
12:53 PM,51.1,16.0,25,30.26,10.0,South,21.9,31.1,N/A,,Clear,170,2012-10-12 17:53:00
1:53 PM,55.0,12.0,18,30.19,10.0,SSE,20.7,33.4,N/A,,Clear,160,2012-10-12 18:53:00
2:53 PM,57.0,14.0,18,30.13,10.0,SSE,24.2,31.1,N/A,,Clear,160,2012-10-12 19:53:00
3:53 PM,57.0,15.1,19,30.09,10.0,SSE,21.9,35.7,N/A,,Clear,160,2012-10-12 20:53:00
4:53 PM,57.0,17.1,21,30.06,10.0,SSE,28.8,34.5,N/A,,Overcast,160,2012-10-12 21:53:00
5:53 PM,57.0,21.0,25,30.02,10.0,South,23.0,29.9,N/A,,Overcast,170,2012-10-12 22:53:00
6:53 PM,55.0,28.0,35,29.98,10.0,South,24.2,33.4,N/A,,Overcast,170,2012-10-12 23:53:00
7:49 PM,53.6,26.6,35,29.93,10.0,South,21.9,31.1,N/A,,Overcast,170,2012-10-13 00:49:00
7:53 PM,53.1,28.0,38,29.96,10.0,South,16.1,31.1,N/A,,Overcast,180,2012-10-13 00:53:00
8:04 PM,53.6,28.4,38,29.94,10.0,South,20.7,26.5,N/A,,Overcast,170,2012-10-13 01:04:00
10:53 PM,50.0,35.1,57,29.94,10.0,South,18.4,24.2,N/A,,Overcast,180,2012-10-13 03:53:00
11:30 PM,50.0,35.6,58,29.91,10.0,South,12.7,-,N/A,,Scattered Clouds,180,2012-10-13 04:30:00
11:53 PM,50.0,36.0,59,29.91,10.0,South,12.7,19.6,N/A,,Clear,180,2012-10-13 04:53:00